Date String (YYYY-MM-DD hh:mm:ss) UTC,Instrument flags,Ambient pressure (hPa),Sample flow (lpm),Bypass flow (lpm),Sample temperature (°C),Ambient temperature (°C),ASC tube jacket temperature (°C),LED temperature (°C),Box temperature (°C),Sample RH (%),Span deviation,Mass concentration (μg/m³),Mass concentration (μg/m³),Mass concentration (μg/m³)
DateTimeUTC,F1_M11,P_M11,Q1_M11,Q2_M11,T1_M11,T2_M11,T3_M11,T4_M11,T5_M11,U1_M11,ZSPAN_M11,X0_M11,X2_M11,X1_M11
2022-10-21 10:00:00,,0821.1,5.01,0.00,29.8,28.1,00.0,38.8,31.4,07.8,0000.0,0004.33,0001.86,0001.29
2022-10-21 10:01:00,,0821.2,5.01,0.00,29.8,28.0,00.0,38.8,31.4,07.8,0000.0,0004.45,0001.82,0001.28
2022-10-21 10:02:00,,0821.2,4.99,0.00,29.8,28.0,00.0,38.8,31.4,07.7,0000.0,0004.70,0001.80,0001.28
2022-10-21 10:03:00,,0821.2,4.99,0.00,29.8,28.0,00.0,38.7,31.5,07.8,0000.0,0004.78,0001.80,0001.28
2022-10-21 10:04:00,,0821.3,5.01,0.00,29.8,28.1,00.0,38.7,31.5,07.7,0000.0,0004.64,0001.82,0001.27
2022-10-21 10:05:00,,0821.2,5.00,0.00,29.8,28.1,00.0,38.7,31.5,07.6,0000.0,0004.27,0001.79,0001.27
2022-10-21 10:06:00,,0821.2,5.00,0.00,29.8,28.1,00.0,38.7,31.5,07.6,0000.0,0004.10,0001.79,0001.28
2022-10-21 10:07:00,,0821.3,5.00,0.00,29.8,28.1,00.0,38.7,31.5,07.5,0000.0,0004.14,0001.81,0001.28
2022-10-21 10:08:00,,0821.3,5.00,0.00,29.8,28.1,00.0,38.7,31.5,07.5,0000.0,0004.16,0001.82,0001.27
2022-10-21 10:09:00,,0821.2,5.02,0.00,29.8,28.0,00.0,38.7,31.4,07.3,0000.0,0004.12,0001.82,0001.26
2022-10-21 10:10:00,,0821.1,4.99,0.00,29.8,28.0,00.0,38.7,31.5,07.4,0000.0,0003.86,0001.79,0001.26
2022-10-21 10:11:00,,0821.2,5.00,0.00,29.8,28.0,00.0,38.7,31.5,07.4,0000.0,0004.55,0001.80,0001.26
2022-10-21 10:12:00,,0821.2,5.01,0.00,29.8,28.0,00.0,38.7,31.4,07.4,0000.0,0004.75,0001.86,0001.27
2022-10-21 10:13:00,,0821.3,5.00,0.00,29.7,28.0,00.0,38.7,31.4,07.4,0000.0,0004.43,0001.87,0001.29
2022-10-21 10:14:00,,0821.3,4.99,0.00,29.7,28.0,00.0,38.7,31.4,07.4,0000.0,0004.24,0001.87,0001.30
2022-10-21 10:15:00,,0821.2,5.00,0.00,29.7,28.0,00.0,38.7,31.4,07.3,0000.0,0005.63,0001.85,0001.32
2022-10-21 10:16:00,,0821.2,5.01,0.00,29.7,28.0,00.0,38.7,31.4,07.4,0000.0,0007.58,0001.88,0001.33
2022-10-21 10:17:00,,0821.2,4.99,0.00,29.7,28.0,00.0,38.7,31.4,07.6,0000.0,0007.72,0001.90,0001.33
2022-10-21 10:18:00,,0821.3,5.00,0.00,29.7,28.0,00.0,38.7,31.4,07.6,0000.0,0007.68,0001.89,0001.33
2022-10-21 10:19:00,,0821.3,5.01,0.00,29.7,28.0,00.0,38.7,31.4,07.7,0000.0,0007.86,0001.93,0001.35
2022-10-21 10:20:00,,0821.4,5.00,0.00,29.7,28.0,00.0,38.7,31.3,07.7,0000.0,0008.12,0001.95,0001.38
2022-10-21 10:21:00,,0821.4,5.00,0.00,29.7,28.0,00.0,38.7,31.3,07.6,0000.0,0008.46,0001.97,0001.39
2022-10-21 10:22:00,,0821.4,5.00,0.00,29.7,28.0,00.0,38.6,31.4,07.6,0000.0,0008.55,0001.97,0001.41
2022-10-21 10:23:00,,0821.4,5.00,0.00,29.7,28.0,00.0,38.6,31.4,07.6,0000.0,0008.42,0001.93,0001.42
2022-10-21 10:24:00,,0821.4,5.00,0.00,29.7,28.0,00.0,38.6,31.5,07.6,0000.0,0008.35,0001.87,0001.41
2022-10-21 10:25:00,,0821.4,5.01,0.00,29.7,28.1,00.0,38.6,31.5,07.7,0000.0,0008.67,0001.84,0001.42
2022-10-21 10:26:00,,0821.4,5.00,0.00,29.7,28.1,00.0,38.6,31.5,07.6,0000.0,0008.14,0001.84,0001.43
2022-10-21 10:27:00,,0821.3,5.00,0.00,29.7,28.1,00.0,38.6,31.5,07.6,0000.0,0006.88,0001.85,0001.43
2022-10-21 10:28:00,,0821.4,5.00,0.00,29.7,28.1,00.0,38.6,31.4,07.4,0000.0,0007.44,0001.89,0001.45
2022-10-21 10:29:00,,0821.4,4.98,0.00,29.7,28.0,00.0,38.6,31.4,07.6,0000.0,0008.26,0001.94,0001.46
2022-10-21 10:30:00,,0821.4,5.00,0.00,29.7,28.0,00.0,38.6,31.4,07.6,0000.0,0008.71,0001.94,0001.46
2022-10-21 10:31:00,,0821.4,5.00,0.00,29.7,28.0,00.0,38.6,31.4,07.6,0000.0,0008.52,0001.99,0001.48
2022-10-21 10:32:00,,0821.4,5.00,0.00,29.7,28.0,00.0,38.6,31.4,07.7,0000.0,0008.50,0002.08,0001.48
2022-10-21 10:33:00,,0821.3,5.00,0.00,29.7,28.0,00.0,38.6,31.4,07.7,0000.0,0008.27,0002.09,0001.48
2022-10-21 10:34:00,,0821.4,5.00,0.00,29.7,28.0,00.0,38.6,31.5,07.5,0000.0,0008.13,0002.12,0001.51
2022-10-21 10:35:00,,0821.4,5.00,0.00,29.7,28.0,00.0,38.6,31.5,07.6,0000.0,0008.24,0002.21,0001.53
2022-10-21 10:36:00,,0821.4,4.99,0.00,29.7,28.0,00.0,38.6,31.4,07.7,0000.0,0007.91,0002.23,0001.54
2022-10-21 10:37:00,,0821.4,5.00,0.00,29.7,28.0,00.0,38.6,31.5,07.7,0000.0,0007.73,0002.27,0001.55
2022-10-21 10:38:00,,0821.4,5.01,0.00,29.7,28.0,00.0,38.6,31.4,07.7,0000.0,0007.66,0002.29,0001.58
2022-10-21 10:39:00,,0821.4,5.00,0.00,29.7,28.1,00.0,38.6,31.5,07.5,0000.0,0006.92,0002.27,0001.59
2022-10-21 10:40:00,,0821.4,4.99,0.00,29.7,28.1,00.0,38.6,31.4,07.4,0000.0,0005.86,0002.28,0001.62
2022-10-21 10:41:00,,0821.4,4.99,0.00,29.7,28.1,00.0,38.6,31.4,07.5,0000.0,0004.62,0002.28,0001.65
2022-10-21 10:42:00,,0821.4,5.00,0.00,29.7,28.0,00.0,38.6,31.4,07.7,0000.0,0004.55,0002.27,0001.66
2022-10-21 10:43:00,,0821.4,5.00,0.00,29.7,28.0,00.0,38.6,31.4,07.7,0000.0,0004.18,0002.23,0001.67
2022-10-21 10:44:00,,0821.3,5.00,0.00,29.7,28.0,00.0,38.6,31.4,07.7,0000.0,0003.79,0002.21,0001.69
2022-10-21 10:45:00,,0821.3,5.00,0.00,29.7,28.0,00.0,38.6,31.4,07.7,0000.0,0003.90,0002.26,0001.70
2022-10-21 10:46:00,,0821.3,5.01,0.00,29.7,28.0,00.0,38.6,31.3,07.8,0000.0,0003.84,0002.24,0001.70
2022-10-21 10:47:00,,0821.3,5.01,0.00,29.6,27.9,00.0,38.6,31.3,07.6,0000.0,0003.87,0002.27,0001.73
2022-10-21 10:48:00,,0821.2,5.00,0.00,29.6,28.0,00.0,38.6,31.3,07.7,0000.0,0004.04,0002.28,0001.75
2022-10-21 10:49:00,,0821.3,5.00,0.00,29.6,27.9,00.0,38.6,31.3,07.6,0000.0,0004.21,0002.30,0001.75
2022-10-21 10:50:00,,0821.4,4.99,0.00,29.6,27.9,00.0,38.6,31.3,07.6,0000.0,0004.91,0002.32,0001.76
2022-10-21 10:51:00,,0821.4,4.99,0.00,29.6,27.9,00.0,38.5,31.3,07.7,0000.0,0004.73,0002.30,0001.74
2022-10-21 10:52:00,,0821.4,5.00,0.00,29.6,27.9,00.0,38.5,31.3,07.6,0000.0,0004.75,0002.31,0001.74
2022-10-21 10:53:00,,0821.4,5.01,0.00,29.6,27.9,00.0,38.5,31.3,07.6,0000.0,0004.68,0002.32,0001.76
2022-10-21 10:54:00,,0821.4,5.01,0.00,29.6,27.9,00.0,38.5,31.3,07.7,0000.0,0004.82,0002.35,0001.75
2022-10-21 10:55:00,,0821.4,5.00,0.00,29.6,27.9,00.0,38.5,31.3,07.7,0000.0,0005.91,0002.33,0001.75
2022-10-21 10:56:00,,0821.4,4.99,0.00,29.6,27.9,00.0,38.5,31.3,07.7,0000.0,0006.01,0002.26,0001.72
2022-10-21 10:57:00,,0821.4,4.99,0.00,29.6,27.9,00.0,38.5,31.3,07.7,0000.0,0006.78,0002.26,0001.71
2022-10-21 10:58:00,,0821.4,5.01,0.00,29.6,27.9,00.0,38.5,31.3,07.7,0000.0,0007.19,0002.29,0001.69
2022-10-21 10:59:00,,0821.3,5.01,0.00,29.6,27.9,00.0,38.5,31.3,07.7,0000.0,0007.00,0002.26,0001.68
